Wind_Speed
18 17 17 16 15 16 16 17 18 19 19 19 18 17 18 19 19 19 18 18 18 18 17 16 16 15 14 13 12 11 10 8 6 5 4 3 2 2 3 4 4 6 7 8
18 17 16 16 16 16 16 17 17 18 18 19 19 19 19 19 19 19 19 19 19 18 17 16 15 14 14 14 14 13 12 10 9 8 7 7 5 4 4 5 6 7 9 10
19 18 17 16 16 17 16 17 17 17 17 18 18 18 18 18 18 18 18 18 19 19 19 19 18 17 16 16 15 14 13 12 11 10 9 8 8 7 7 7 8 8 9 11
19 19 19 18 17 17 16 16 16 17 17 17 18 17 17 18 18 18 18 18 18 18 18 19 19 19 18 18 17 17 16 15 14 12 11 11 10 10 10 10 10 11 11 12
19 19 19 19 17 17 16 16 16 16 16 17 17 17 18 18 18 18 18 18 18 18 18 18 18 19 19 18 18 18 18 17 17 16 15 14 13 12 12 11 11 11 12 13
19 19 19 18 17 17 16 16 16 16 16 17 17 18 18 18 18 18 18 19 19 19 19 19 19 19 19 19 19 19 18 18 17 17 17 17 16 15 14 13 12 12 12 13
18 18 18 18 17 17 16 16 16 15 16 16 17 18 18 18 18 18 18 19 19 20 20 19 19 19 19 19 19 18 18 18 18 18 18 18 17 17 16 16 15 14 13 13
16 17 17 17 17 17 16 16 15 15 16 16 16 17 17 18 18 18 18 18 18 19 19 19 18 18 18 18 18 18 18 19 19 18 18 19 19 18 18 17 17 16 15 14
15 16 17 17 16 16 15 15 15 15 15 15 15 16 16 17 17 17 17 17 17 17 17 18 18 18 17 17 18 18 18 19 19 19 19 19 20 20 19 19 18 17 16 15
13 14 15 16 16 15 15 14 14 14 14 14 14 14 14 15 16 16 16 16 16 16 17 17 17 17 17 17 17 18 18 18 19 20 20 20 21 21 20 20 19 18 18 17
10 12 13 14 15 14 14 14 13 12 12 12 12 12 12 12 13 13 14 15 15 15 15 15 15 16 16 16 17 17 17 18 19 20 20 21 21 22 22 21 20 20 19 19
8 9 10 12 13 13 13 13 12 11 10 10 10 10 10 10 10 11 11 12 12 13 13 14 14 15 15 16 16 17 17 18 19 19 20 20 21 22 22 23 22 21 21 20
6 7 8 9 10 11 11 11 11 11 10 9 9 8 8 8 8 8 9 10 10 11 12 12 13 14 14 15 16 16 17 18 19 19 20 20 20 21 22 22 23 22 22 22
7 6 6 7 8 9 10 10 9 9 9 8 8 7 7 7 7 7 7 8 9 10 10 11 11 12 13 14 15 16 17 17 18 19 19 20 20 20 21 21 22 22 22 22
8 8 7 7 6 7 8 8 8 8 8 8 7 7 7 6 6 7 7 7 8 8 9 9 10 11 11 12 13 14 15 16 17 18 18 19 20 20 20 20 20 21 21 21
9 9 9 8 8 7 7 7 7 7 7 8 7 7 7 7 6 6 6 7 7 7 8 8 8 9 10 10 11 12 14 15 16 16 17 18 18 19 19 19 19 19 19 19
12 11 10 10 9 9 9 8 8 7 7 7 7 7 7 7 7 7 7 7 7 7 7 7 8 8 9 9 10 11 12 13 14 15 16 16 17 17 17 17 18 18 18 18
15 14 13 12 12 11 11 10 10 9 9 8 8 8 8 8 8 8 8 7 7 8 7 7 7 8 8 9 9 9 10 11 12 13 14 15 15 15 16 15 16 16 16 16
18 17 16 15 15 14 14 13 13 12 12 11 11 10 10 9 9 9 9 9 9 9 8 8 8 8 8 8 8 8 8 9 10 11 12 13 13 14 14 14 14 14 14 14
23 21 20 19 18 17 17 16 16 16 15 15 15 14 13 12 11 11 11 11 10 10 10 10 10 9 9 8 8 8 8 8 8 9 10 10 11 12 12 12 12 12 12 11
27 26 25 23 22 21 20 20 19 19 19 18 18 18 17 16 15 14 13 13 12 12 11 11 12 11 10 10 9 9 9 9 8 8 8 9 9 10 10 10 10 10 10 9
32 31 30 28 27 26 25 24 23 22 22 22 22 21 21 20 19 18 17 16 15 14 13 13 13 13 12 12 11 11 10 10 9 9 9 9 8 8 9 9 8 8 8 7
38 37 35 34 32 31 30 28 28 27 26 25 25 25 24 24 23 23 22 21 19 18 17 16 15 15 14 14 14 13 12 12 11 11 10 10 9 9 9 8 8 8 7 7
43 42 41 39 38 36 35 34 33 31 30 29 29 28 28 27 27 26 26 25 24 23 22 20 19 18 17 16 16 16 16 15 14 13 13 12 11 11 10 10 9 9 8 8
48 47 46 45 43 42 41 39 38 36 35 34 33 32 32 31 30 30 29 29 28 27 26 25 24 23 21 20 20 19 18 18 17 17 16 15 14 14 13 12 12 11 11 10
52 52 51 49 48 46 45 44 42 41 40 39 38 37 36 35 34 34 33 33 32 31 30 30 29 27 26 24 23 22 21 20 19 19 19 18 18 17 17 16 15 14 14 13
54 54 54 53 52 50 49 48 46 45 44 43 42 42 41 39 39 38 37 37 36 35 34 33 33 32 31 29 28 26 25 24 23 22 21 21 21 20 20 19 19 18 18 17
Wind_Direction
21 21 25 31 36 40 43 43 42 42 43 45 46 46 46 47 49 50 49 48 50 54 55 55 58 63 66 67 69 73 73 70 64 61 54 44 21 334 311 296 283 277 264 261
24 25 30 37 42 44 45 44 44 44 45 46 47 48 49 52 53 54 54 53 53 56 59 60 62 63 66 67 67 66 65 65 62 59 51 41 30 11 342 311 294 287 277 273
27 30 34 42 43 45 46 45 44 44 44 45 45 46 48 50 52 54 54 54 54 58 60 62 64 67 70 66 64 63 63 61 55 48 40 30 18 2 345 327 313 301 291 285
32 33 37 39 43 45 46 47 45 43 44 45 45 47 50 52 54 56 57 57 59 60 61 63 64 64 63 62 61 60 56 53 49 42 34 24 13 1 349 336 325 314 306 297
34 35 37 40 43 44 46 48 47 46 46 46 48 52 54 55 57 58 58 60 62 62 63 62 61 62 62 60 58 55 52 50 47 42 36 30 21 12 2 352 340 328 318 309
35 36 37 39 42 44 45 49 46 47 48 51 55 57 58 58 59 59 59 60 62 63 63 63 62 62 60 58 56 54 52 48 44 41 37 32 27 20 13 6 356 344 333 322
36 37 38 38 41 43 45 45 46 48 50 54 56 58 58 58 58 59 61 63 64 63 63 62 61 60 58 56 54 51 48 45 42 38 35 32 28 23 19 14 7 359 350 341
34 36 36 36 38 40 43 44 46 48 52 54 57 59 59 59 59 61 63 64 64 63 62 60 59 57 55 52 50 47 44 42 39 36 34 31 28 25 21 17 13 9 4 359
33 34 34 34 36 38 41 43 46 49 51 53 56 57 58 58 60 62 63 62 62 61 59 56 55 53 49 47 45 43 40 38 36 33 31 29 27 24 22 20 18 17 15 13
29 30 31 33 34 37 39 42 45 48 50 53 55 57 59 59 61 61 60 59 59 58 55 52 49 47 44 43 41 40 37 34 32 31 29 28 27 26 25 24 23 23 24 24
21 26 29 31 32 36 38 40 43 47 49 52 54 56 57 57 58 58 57 55 53 52 50 48 46 43 41 40 39 38 36 34 32 30 29 28 28 29 29 29 30 32 33 35
1 12 19 25 29 31 34 36 38 41 44 46 49 50 51 51 51 51 50 48 46 44 43 42 41 41 39 37 36 35 34 33 32 30 30 30 31 32 33 34 36 38 40 41
333 349 3 12 19 24 28 29 31 33 35 37 38 38 39 40 41 41 39 36 35 35 35 35 36 36 35 34 33 32 31 30 30 31 31 31 32 33 35 37 39 42 44 46
303 316 334 348 3 12 17 20 21 22 23 25 24 23 23 24 24 24 22 20 21 23 26 28 30 30 30 29 29 30 29 29 29 29 30 31 32 34 36 39 41 44 47 49
291 297 306 319 331 345 358 5 10 11 10 9 9 7 6 4 4 6 7 5 5 9 13 17 20 23 24 24 25 26 27 27 27 28 29 31 32 35 37 40 42 45 48 51
288 291 293 296 302 310 320 335 346 353 356 356 355 353 353 350 347 346 348 351 352 353 357 3 7 11 14 17 19 21 22 23 24 25 26 29 31 34 36 39 42 45 48 51
280 283 285 286 288 291 296 302 311 321 330 337 341 342 339 338 335 331 328 328 330 337 342 345 349 353 358 4 9 13 15 18 20 21 23 25 28 31 35 38 40 44 48 51
273 276 278 279 280 281 283 285 289 294 301 309 317 323 325 324 322 320 318 314 313 315 322 328 330 333 339 346 351 357 4 9 12 16 19 22 25 28 32 36 39 42 46 50
267 270 273 275 276 276 277 277 279 281 283 287 292 299 305 310 313 312 310 308 305 303 305 305 310 318 324 329 333 338 344 351 359 5 10 15 19 22 26 31 36 40 44 48
263 265 268 270 272 273 273 273 274 274 275 276 279 282 286 291 296 300 302 301 303 304 296 291 292 298 306 312 317 321 327 333 340 347 355 1 7 13 18 23 28 33 38 43
260 262 264 266 268 270 271 271 271 271 271 271 272 273 276 278 281 285 289 292 295 297 296 291 288 287 289 294 300 305 310 315 321 327 333 341 349 357 3 10 15 20 26 32
259 260 262 263 265 266 267 268 268 268 268 269 269 269 270 272 273 275 277 281 285 288 288 288 287 284 282 283 286 291 295 299 302 307 313 318 324 331 339 347 354 1 7 14
258 259 260 261 262 263 264 265 265 266 266 267 267 268 268 268 269 270 271 272 274 277 280 281 282 282 280 278 278 279 282 286 289 291 294 299 304 308 312 318 325 332 339 344
257 258 259 260 261 262 262 262 263 263 264 265 265 266 266 267 267 267 268 269 269 271 272 273 276 277 278 278 276 275 274 276 278 281 283 284 287 290 294 297 301 306 311 315
254 256 257 258 259 260 260 261 261 262 262 263 263 264 264 265 266 266 266 266 267 267 268 268 269 271 273 274 274 274 274 273 272 272 273 275 276 278 280 282 285 288 291 295
252 254 255 257 258 259 259 260 260 260 260 261 261 262 262 263 263 264 265 265 265 266 266 266 266 267 267 269 270 271 271 272 271 270 269 269 270 271 271 272 273 276 278 281
252 253 254 256 257 257 257 258 258 258 258 259 259 260 261 261 261 262 262 263 264 264 265 265 265 265 265 265 266 267 268 269 270 270 270 269 268 267 267 267 267 268 270 272
Height
5865 5861 5857 5854 5850 5846 5843 5840 5837 5833 5829 5826 5823 5819 5816 5812 5808 5805 5802 5800 5797 5794 5792 5790 5789 5788 5787 5786 5786 5785 5785 5786 5786 5786 5786 5785 5785 5785 5784 5784 5783 5783 5782 5782
5867 5863 5859 5855 5852 5849 5845 5842 5839 5836 5833 5830 5826 5823 5819 5816 5813 5810 5807 5805 5802 5799 5797 5795 5794 5793 5792 5790 5790 5789 5789 5788 5788 5787 5787 5786 5785 5784 5784 5783 5782 5781 5781 5780
5869 5865 5861 5858 5854 5851 5848 5845 5842 5839 5837 5832 5829 5826 5823 5820 5817 5814 5812 5809 5807 5805 5803 5801 5799 5797 5796 5795 5794 5793 5792 5791 5790 5789 5788 5787 5785 5784 5783 5781 5780 5779 5778 5777
5870 5868 5863 5862 5856 5853 5850 5848 5845 5842 5839 5836 5833 5830 5827 5824 5821 5819 5816 5814 5812 5810 5808 5806 5804 5802 5800 5799 5797 5796 5795 5794 5792 5791 5789 5788 5786 5784 5782 5780 5778 5776 5775 5773
5872 5869 5866 5863 5859 5856 5853 5850 5848 5845 5842 5839 5836 5833 5831 5828 5825 5823 5821 5819 5816 5814 5812 5810 5808 5806 5805 5803 5801 5800 5798 5796 5795 5793 5791 5788 5786 5783 5781 5778 5776 5774 5772 5770
5875 5871 5868 5866 5862 5858 5856 5853 5851 5848 5845 5842 5840 5838 5836 5832 5830 5827 5825 5823 5821 5818 5816 5815 5813 5811 5809 5807 5805 5803 5801 5799 5797 5795 5792 5790 5787 5784 5781 5778 5775 5772 5770 5767
5877 5874 5871 5868 5864 5861 5860 5858 5853 5851 5848 5846 5843 5841 5839 5836 5834 5831 5829 5827 5825 5823 5821 5819 5817 5816 5813 5811 5809 5807 5805 5803 5800 5797 5794 5792 5788 5785 5781 5778 5775 5771 5768 5764
5879 5876 5875 5869 5866 5864 5862 5858 5856 5853 5851 5849 5846 5844 5842 5840 5838 5835 5833 5832 5830 5828 5826 5824 5822 5820 5818 5816 5813 5811 5808 5806 5803 5800 5797 5794 5790 5786 5782 5779 5775 5771 5767 5763
5881 5880 5875 5872 5869 5866 5863 5861 5858 5856 5854 5852 5849 5847 5845 5843 5841 5839 5838 5836 5834 5832 5830 5828 5826 5824 5822 5819 5817 5814 5811 5809 5806 5802 5799 5795 5792 5788 5783 5779 5775 5771 5767 5763
5881 5879 5876 5873 5870 5868 5865 5862 5860 5858 5856 5854 5852 5851 5849 5847 5845 5843 5842 5840 5838 5836 5834 5832 5830 5828 5825 5823 5820 5817 5814 5811 5808 5805 5801 5798 5794 5790 5785 5781 5777 5772 5768 5764
5881 5879 5877 5874 5872 5869 5867 5864 5862 5860 5858 5856 5855 5853 5852 5850 5848 5847 5845 5843 5841 5839 5837 5835 5833 5831 5828 5826 5823 5820 5817 5814 5811 5807 5804 5800 5796 5792 5787 5783 5779 5775 5771 5767
5881 5880 5878 5876 5873 5871 5868 5866 5864 5862 5860 5858 5857 5855 5854 5852 5851 5849 5847 5846 5844 5842 5840 5838 5836 5834 5831 5829 5826 5823 5820 5817 5814 5810 5806 5803 5799 5795 5791 5786 5782 5778 5774 5770
5880 5879 5877 5875 5873 5871 5869 5867 5865 5863 5861 5860 5858 5857 5855 5854 5852 5851 5849 5848 5846 5844 5842 5840 5838 5836 5833 5831 5828 5825 5822 5819 5816 5813 5809 5806 5802 5798 5794 5790 5786 5782 5779 5775
5878 5877 5876 5875 5873 5871 5869 5867 5865 5864 5862 5860 5859 5857 5856 5855 5853 5852 5850 5849 5847 5845 5844 5842 5840 5838 5835 5833 5830 5828 5825 5822 5819 5815 5812 5809 5805 5801 5798 5794 5791 5787 5784 5780
5876 5875 5874 5873 5872 5870 5869 5867 5865 5864 5862 5861 5859 5858 5856 5855 5853 5852 5851 5849 5848 5846 5845 5843 5841 5839 5837 5835 5832 5830 5827 5824 5821 5818 5815 5812 5808 5805 5802 5798 5795 5792 5789 5786
5872 5872 5871 5870 5870 5869 5867 5866 5865 5863 5862 5860 5859 5857 5856 5854 5853 5852 5850 5849 5848 5846 5845 5843 5842 5840 5838 5836 5834 5832 5829 5827 5824 5821 5818 5815 5811 5808 5805 5802 5799 5796 5793 5791
5868 5868 5867 5867 5867 5866 5865 5864 5863 5862 5860 5859 5858 5856 5855 5854 5852 5851 5849 5848 5847 5846 5844 5843 5842 5840 5838 5837 5835 5833 5831 5828 5826 5823 5820 5818 5815 5812 5809 5806 5803 5800 5798 5795
5863 5863 5863 5863 5862 5862 5862 5861 5860 5859 5858 5857 5856 5855 5854 5852 5851 5850 5848 5847 5846 5844 5843 5842 5841 5839 5838 5837 5835 5833 5831 5829 5827 5825 5822 5820 5817 5814 5812 5809 5806 5804 5802 5799
5857 5857 5857 5857 5857 5857 5857 5857 5856 5856 5855 5854 5853 5852 5851 5850 5849 5848 5846 5845 5844 5843 5842 5840 5839 5838 5837 5836 5834 5833 5831 5830 5828 5826 5824 5821 5819 5817 5814 5812 5809 5807 5805 5803
5850 5850 5851 5851 5851 5851 5851 5851 5851 5851 5850 5850 5849 5849 5848 5847 5846 5845 5844 5843 5841 5840 5839 5838 5837 5836 5835 5834 5833 5832 5831 5829 5828 5826 5824 5822 5820 5818 5816 5814 5812 5810 5808 5806
5841 5842 5843 5843 5844 5844 5844 5845 5845 5845 5845 5844 5844 5844 5843 5843 5842 5841 5840 5839 5839 5837 5836 5835 5834 5833 5833 5832 5831 5830 5829 5828 5827 5825 5824 5822 5820 5819 5817 5815 5813 5811 5809 5808
5831 5832 5833 5834 5835 5836 5837 5837 5837 5837 5837 5837 5837 5837 5837 5837 5837 5836 5836 5835 5834 5834 5833 5832 5831 5830 5829 5829 5828 5827 5827 5826 5825 5823 5822 5821 5820 5818 5817 5815 5813 5812 5810 5809
5819 5821 5822 5824 5825 5826 5827 5828 5828 5829 5829 5829 5830 5830 5830 5830 5830 5830 5830 5829 5829 5829 5828 5827 5826 5826 5825 5825 5824 5824 5823 5822 5821 5821 5820 5819 5818 5816 5815 5814 5813 5811 5810 5808
5806 5807 5809 5811 5813 5815 5816 5817 5818 5819 5820 5820 5821 5821 5821 5822 5822 5822 5822 5822 5822 5822 5822 5822 5821 5821 5820 5820 5819 5819 5818 5818 5817 5817 5816 5815 5815 5814 5813 5812 5811 5810 5808 5807
5790 5792 5794 5797 5799 5801 5803 5804 5806 5808 5809 5809 5810 5811 5811 5812 5813 5813 5813 5814 5814 5814 5814 5814 5814 5814 5814 5814 5813 5813 5813 5812 5812 5811 5811 5811 5810 5809 5809 5808 5807 5806 5806 5805
5774 5776 5779 5781 5784 5786 5788 5790 5792 5794 5796 5797 5798 5799 5800 5801 5802 5802 5803 5804 5804 5805 5805 5805 5806 5806 5806 5806 5806 5806 5806 5806 5805 5805 5805 5805 5804 5804 5804 5803 5803 5802 5801 5801
5757 5759 5762 5765 5767 5770 5772 5775 5777 5779 5781 5783 5784 5785 5787 5788 5789 5790 5791 5792 5793 5794 5794 5795 5795 5796 5797 5797 5798 5798 5798 5798 5798 5798 5798 5798 5798 5797 5797 5797 5797 5796 5796 5796